Location: Kellogg
(38.0159°N, 90.0546°W)
Time: 01:05:43
(UTC+00:00)

Vanguard 2 - Pass Details

Date: 26 September 2024
Orbit: 552 x 2910 km, 32.9° (Epoch: 15 October)

Event Time Altitude Azimuth Distance (km) Brightness Sun altitude
Rises 09:06:04 0° 265° (W) 2,712 - -32.4°
Reaches altitude 10° 09:08:16 10° 256° (WSW) 1,848 - -32.0°
Maximum altitude 09:11:59 36° 189° (S) 1,004 - -31.4°
Exits shadow 09:14:45 20° 134° (SE) 1,634 9.3 -30.9°
Drops below altitude 10° 09:16:42 10° 123° (ESE) 2,350 10.3 -30.6°
Sets 09:19:51 0° 115° (ESE) 3,587 11.5 -30.0°
